| time (UTC) | temp F | wind direction | speed MPH | gust MPH | rain 1hr in | rain 24hr in | rain mn in | humidity % | barometer mb |
| 20260505120059 | 57 | 151 | 4.0 | 7.0 | 0.00 | 0.07 | 0.07 | 94 | 1008.7 |
| 20260505114606 | 57 | 153 | 7.0 | 10.0 | 0.00 | 0.07 | 0.07 | 94 | 1009.0 |
| 20260505113101 | 57 | 171 | 4.0 | 8.0 | 0.00 | 0.07 | 0.07 | 94 | 1009.1 |
| 20260505111603 | 56 | 167 | 7.0 | 10.0 | 0.01 | 0.07 | 0.07 | 94 | 1009.0 |
| 20260505101606 | 57 | 297 | 6.0 | 14.0 | 0.06 | 0.06 | 0.06 | 91 | 1009.4 |
| 20260505100104 | 57 | 288 | 9.0 | 15.0 | 0.05 | 0.05 | 0.05 | 90 | 1009.3 |
| 20260505094607 | 58 | 283 | 10.0 | 21.0 | 0.04 | 0.04 | 0.04 | 87 | 1009.3 |
| 20260505093056 | 61 | 292 | 16.0 | 30.0 | 0.00 | 0.00 | 0.00 | 77 | 1009.2 |
| 20260505091558 | 65 | 289 | 8.0 | 15.0 | 0.00 | 0.00 | 0.00 | 63 | 1008.3 |
| 20260505090110 | 65 | 213 | 9.0 | 18.0 | 0.00 | 0.00 | 0.00 | 63 | 1007.4 |
| 20260505084559 | 65 | 241 | 10.0 | 20.0 | 0.00 | 0.00 | 0.00 | 63 | 1006.7 |
| 20260505083108 | 65 | 194 | 10.0 | 18.0 | 0.00 | 0.00 | 0.00 | 63 | 1006.6 |
| 20260505081602 | 65 | 226 | 9.0 | 17.0 | 0.00 | 0.00 | 0.00 | 63 | 1006.4 |
| 20260505080059 | 65 | 205 | 10.0 | 19.0 | 0.00 | 0.00 | 0.00 | 63 | 1006.2 |
| 20260505074557 | 65 | 213 | 11.0 | 20.0 | 0.00 | 0.00 | 0.00 | 62 | 1006.2 |
| 20260505073101 | 65 | 190 | 9.0 | 19.0 | 0.00 | 0.00 | 0.00 | 62 | 1006.3 |
| 20260505071559 | 66 | 211 | 10.0 | 21.0 | 0.00 | 0.00 | 0.00 | 62 | 1006.1 |
| 20260505070100 | 66 | 222 | 10.0 | 23.0 | 0.00 | 0.00 | 0.00 | 61 | 1006.1 |
| 20260505064558 | 66 | 211 | 12.0 | 21.0 | 0.00 | 0.00 | 0.00 | 61 | 1006.4 |
| 20260505063101 | 66 | 225 | 12.0 | 22.0 | 0.00 | 0.00 | 0.00 | 61 | 1006.5 |
| 20260505061603 | 66 | 198 | 14.0 | 25.0 | 0.00 | 0.00 | 0.00 | 61 | 1006.4 |
| 20260505054559 | 66 | 192 | 10.0 | 19.0 | 0.00 | 0.00 | 0.00 | 61 | 1006.1 |
| 20260505053058 | 66 | 204 | 11.0 | 21.0 | 0.00 | 0.00 | 0.00 | 60 | 1006.0 |
| 20260505051556 | 66 | 186 | 13.0 | 21.0 | 0.00 | 0.00 | 0.00 | 61 | 1005.9 |
| 20260505050128 | 66 | 197 | 13.0 | 23.0 | 0.00 | 0.00 | 0.00 | 61 | 1006.0 |
| 20260505041610 | 67 | 211 | 9.0 | 16.0 | 0.00 | 0.00 | 0.00 | 62 | 1006.5 |
| 20260505034557 | 68 | 200 | 12.0 | 21.0 | 0.00 | 0.00 | 0.00 | 59 | 1006.7 |
| 20260505033058 | 69 | 225 | 12.0 | 21.0 | 0.00 | 0.00 | 0.00 | 58 | 1006.7 |
| 20260505031559 | 69 | 214 | 12.0 | 20.0 | 0.00 | 0.00 | 0.00 | 58 | 1006.4 |
| 20260505030059 | 69 | 217 | 11.0 | 18.0 | 0.00 | 0.00 | 0.00 | 58 | 1006.2 |
| 20260505024557 | 69 | 207 | 11.0 | 20.0 | 0.00 | 0.00 | 0.00 | 58 | 1006.1 |
| 20260505023057 | 70 | 196 | 12.0 | 19.0 | 0.00 | 0.00 | 0.00 | 58 | 1005.9 |
| 20260505021601 | 70 | 183 | 10.0 | 15.0 | 0.00 | 0.00 | 0.00 | 57 | 1005.7 |
| 20260505020055 | 70 | 220 | 8.0 | 15.0 | 0.00 | 0.00 | 0.00 | 57 | 1005.4 |
| 20260505014611 | 70 | 206 | 10.0 | 19.0 | 0.00 | 0.00 | 0.00 | 57 | 1005.1 |
| 20260505013058 | 70 | 214 | 9.0 | 18.0 | 0.00 | 0.00 | 0.00 | 57 | 1004.9 |
| 20260505011604 | 71 | 215 | 10.0 | 17.0 | 0.00 | 0.00 | 0.00 | 56 | 1005.0 |
| 20260505010058 | 71 | 223 | 9.0 | 16.0 | 0.00 | 0.00 | 0.00 | 55 | 1005.0 |
| 20260505004557 | 72 | 212 | 10.0 | 15.0 | 0.00 | 0.00 | 0.00 | 54 | 1005.1 |
| 20260505003057 | 73 | 210 | 7.0 | 16.0 | 0.00 | 0.00 | 0.00 | 51 | 1005.0 |
| 20260505001623 | 74 | 209 | 11.0 | 20.0 | 0.00 | 0.00 | 0.00 | 50 | 1005.1 |
| 20260505000136 | 74 | 232 | 11.0 | 21.0 | 0.00 | 0.00 | 0.00 | 50 | 1005.3 |
| 20260504234612 | 74 | 250 | 14.0 | 24.0 | 0.00 | 0.00 | 0.00 | 50 | 1005.5 |
| 20260504233107 | 75 | 237 | 11.0 | 22.0 | 0.00 | 0.00 | 0.00 | 51 | 1005.6 |
| 20260504231601 | 75 | 217 | 10.0 | 31.0 | 0.00 | 0.00 | 0.00 | 51 | 1005.7 |
| 20260504230057 | 75 | 196 | 15.0 | 25.0 | 0.00 | 0.00 | 0.00 | 51 | 1005.9 |
| 20260504224611 | 75 | 232 | 12.0 | 24.0 | 0.00 | 0.00 | 0.00 | 51 | 1006.2 |
| 20260504223102 | 75 | 232 | 15.0 | 26.0 | 0.00 | 0.00 | 0.00 | 50 | 1006.2 |
| 20260504221604 | 75 | 202 | 12.0 | 24.0 | 0.00 | 0.00 | 0.00 | 49 | 1006.5 |
| 20260504214601 | 75 | 250 | 17.0 | 29.0 | 0.00 | 0.00 | 0.00 | 47 | 1006.6 |
| 20260504213126 | 75 | 248 | 19.0 | 30.0 | 0.00 | 0.00 | 0.00 | 48 | 1006.5 |
| 20260504211603 | 76 | 268 | 10.0 | 28.0 | 0.00 | 0.00 | 0.00 | 48 | 1006.6 |
| 20260504210058 | 77 | 257 | 9.0 | 21.0 | 0.00 | 0.00 | 0.00 | 49 | 1006.8 |
| 20260504204558 | 77 | 202 | 9.0 | 18.0 | 0.00 | 0.00 | 0.00 | 50 | 1006.8 |
| 20260504203117 | 77 | 186 | 9.0 | 18.0 | 0.00 | 0.00 | 0.00 | 50 | 1006.7 |
| 20260504201558 | 76 | 202 | 9.0 | 21.0 | 0.00 | 0.00 | 0.00 | 51 | 1006.8 |
| 20260504200055 | 76 | 244 | 8.0 | 17.0 | 0.00 | 0.00 | 0.00 | 55 | 1006.9 |
| 20260504194605 | 74 | 211 | 12.0 | 21.0 | 0.00 | 0.00 | 0.00 | 55 | 1007.4 |
| 20260504193110 | 74 | 208 | 11.0 | 21.0 | 0.00 | 0.00 | 0.00 | 54 | 1007.5 |
| 20260504191557 | 75 | 279 | 11.0 | 22.0 | 0.00 | 0.00 | 0.00 | 53 | 1007.8 |
| 20260504190115 | 74 | 214 | 7.0 | 18.0 | 0.00 | 0.00 | 0.00 | 55 | 1007.9 |
| 20260504184606 | 74 | 229 | 10.0 | 19.0 | 0.00 | 0.00 | 0.00 | 55 | 1007.9 |
| 20260504183058 | 73 | 184 | 9.0 | 22.0 | 0.00 | 0.00 | 0.00 | 57 | 1008.0 |
| 20260504181603 | 73 | 308 | 13.0 | 27.0 | 0.00 | 0.00 | 0.00 | 54 | 1007.9 |
| 20260504180059 | 72 | 172 | 8.0 | 22.0 | 0.00 | 0.00 | 0.00 | 58 | 1007.9 |
| 20260504174607 | 70 | 198 | 12.0 | 18.0 | 0.00 | 0.00 | 0.00 | 63 | 1008.0 |
| 20260504173100 | 69 | 188 | 8.0 | 15.0 | 0.00 | 0.00 | 0.00 | 64 | 1008.0 |
| 20260504171555 | 69 | 210 | 10.0 | 19.0 | 0.00 | 0.00 | 0.00 | 62 | 1008.2 |
| 20260504140110 | 59 | 238 | 6.0 | 16.0 | 0.00 | 0.00 | 0.00 | 74 | 1008.8 |